![]() |
EMODnet Physics ERDDAP
Easier access to scientific data |
log in|
Brought to you by EMODnet Physics |
| Dataset Title: | NDBC - Collection of dew point temperature (DEWT) TimeSeries - IN SITU MultiPointTimeSeriesObservation
|
| Institution: | NDBC (Dataset ID: TS_DEWT_NDBC) |
| Information: | Summary
| License
| FGDC
| ISO 19115
| Metadata
| Background
| Subset
| Data Access Form
| Make a graph
|
| Name | Last modified | Size | Description | |
|---|---|---|---|---|
| Parent Directory | - | - | ||
| 46081_TS_DEWT_012004.nc | 07-Dec-2024 20:24 | 5596928 | ||
| 46081_TS_DEWT_012005.nc | 07-Dec-2024 20:25 | 429782 | ||
| 46081_TS_DEWT_012006.nc | 07-Dec-2024 20:27 | 429090 | ||
| 46081_TS_DEWT_012007.nc | 07-Dec-2024 20:29 | 656565 | ||
| 46081_TS_DEWT_012008.nc | 07-Dec-2024 20:30 | 1109992 | ||
| 46081_TS_DEWT_012009.nc | 07-Dec-2024 20:31 | 1024887 | ||
| 46081_TS_DEWT_012010.nc | 07-Dec-2024 20:32 | 1032657 | ||
| 46081_TS_DEWT_012011.nc | 07-Dec-2024 20:34 | 1027085 | ||
| 46081_TS_DEWT_012013.nc | 07-Dec-2024 20:46 | 1112211 | ||
| 46081_TS_DEWT_012015.nc | 07-Dec-2024 20:48 | 1106345 | ||
| 46081_TS_DEWT_012016.nc | 07-Dec-2024 20:50 | 5610267 | ||
| 46081_TS_DEWT_012017.nc | 07-Dec-2024 21:01 | 5176369 | ||
| 46081_TS_DEWT_012018.nc | 07-Dec-2024 21:03 | 453049 | ||
| 46081_TS_DEWT_012019.nc | 07-Dec-2024 21:05 | 451624 | ||
| 46081_TS_DEWT_012021.nc | 07-Dec-2024 21:08 | 983595 | ||
| 46081_TS_DEWT_012022.nc | 07-Dec-2024 21:18 | 639146 | ||
| 46081_TS_DEWT_012023.nc | 07-Dec-2024 21:20 | 1023297 | ||
| 46081_TS_DEWT_012025.nc | 07-Feb-2025 11:31 | 1261993 | ||
| 46081_TS_DEWT_012026.nc | 02-Feb-2026 18:50 | 1113992 | ||
| 46081_TS_DEWT_022004.nc | 07-Dec-2024 20:24 | 1261778 | ||
| 46081_TS_DEWT_022005.nc | 07-Dec-2024 20:25 | 1265387 | ||
| 46081_TS_DEWT_022006.nc | 07-Dec-2024 20:27 | 1107208 | ||
| 46081_TS_DEWT_022007.nc | 07-Dec-2024 20:29 | 5602988 | ||
| 46081_TS_DEWT_022009.nc | 07-Dec-2024 20:31 | 5345001 | ||
| 46081_TS_DEWT_022010.nc | 07-Dec-2024 20:33 | 450632 | ||
| 46081_TS_DEWT_022011.nc | 07-Dec-2024 20:34 | 450269 | ||
| 46081_TS_DEWT_022013.nc | 07-Dec-2024 20:46 | 446891 | ||
| 46081_TS_DEWT_022015.nc | 07-Dec-2024 20:48 | 447928 | ||
| 46081_TS_DEWT_022016.nc | 07-Dec-2024 20:50 | 447472 | ||
| 46081_TS_DEWT_022017.nc | 07-Dec-2024 21:01 | 447051 | ||
| 46081_TS_DEWT_022018.nc | 07-Dec-2024 21:03 | 449297 | ||
| 46081_TS_DEWT_022019.nc | 07-Dec-2024 21:05 | 448511 | ||
| 46081_TS_DEWT_022021.nc | 07-Dec-2024 21:09 | 450227 | ||
| 46081_TS_DEWT_022022.nc | 07-Dec-2024 21:18 | 447619 | ||
| 46081_TS_DEWT_022023.nc | 07-Dec-2024 21:20 | 449337 | ||
| 46081_TS_DEWT_022025.nc | 01-Mar-2025 08:07 | 450451 | ||
| 46081_TS_DEWT_022026.nc | 01-Mar-2026 09:40 | 448745 | ||
| 46081_TS_DEWT_032004.nc | 07-Dec-2024 20:24 | 451008 | ||
| 46081_TS_DEWT_032005.nc | 07-Dec-2024 20:26 | 450876 | ||
| 46081_TS_DEWT_032006.nc | 07-Dec-2024 20:27 | 448287 | ||
| 46081_TS_DEWT_032007.nc | 07-Dec-2024 20:29 | 449336 | ||
| 46081_TS_DEWT_032009.nc | 07-Dec-2024 20:31 | 437448 | ||
| 46081_TS_DEWT_032010.nc | 07-Dec-2024 20:33 | 447374 | ||
| 46081_TS_DEWT_032011.nc | 07-Dec-2024 20:34 | 451284 | ||
| 46081_TS_DEWT_032013.nc | 07-Dec-2024 20:46 | 447034 | ||
| 46081_TS_DEWT_032015.nc | 07-Dec-2024 20:48 | 448018 | ||
| 46081_TS_DEWT_032016.nc | 07-Dec-2024 20:50 | 450302 | ||
| 46081_TS_DEWT_032017.nc | 07-Dec-2024 21:02 | 446114 | ||
| 46081_TS_DEWT_032018.nc | 07-Dec-2024 21:04 | 438063 | ||
| 46081_TS_DEWT_032019.nc | 07-Dec-2024 21:05 | 449291 | ||
| 46081_TS_DEWT_032021.nc | 07-Dec-2024 21:11 | 445995 | ||
| 46081_TS_DEWT_032022.nc | 07-Dec-2024 21:18 | 449381 | ||
| 46081_TS_DEWT_032023.nc | 07-Dec-2024 21:20 | 449008 | ||
| 46081_TS_DEWT_032025.nc | 02-Apr-2025 06:25 | 444737 | ||
| 46081_TS_DEWT_032026.nc | 25-Mar-2026 13:57 | 450770 | ||
| 46081_TS_DEWT_042004.nc | 07-Dec-2024 20:24 | 427487 | ||
| 46081_TS_DEWT_042005.nc | 07-Dec-2024 20:26 | 1831314 | ||
| 46081_TS_DEWT_042006.nc | 07-Dec-2024 20:28 | 1669072 | ||
| 46081_TS_DEWT_042009.nc | 07-Dec-2024 20:31 | 1830384 | ||
| 46081_TS_DEWT_042010.nc | 07-Dec-2024 20:33 | 1826053 | ||
| 46081_TS_DEWT_042011.nc | 07-Dec-2024 20:34 | 1828853 | ||
| 46081_TS_DEWT_042013.nc | 07-Dec-2024 20:46 | 1680995 | ||
| 46081_TS_DEWT_042015.nc | 07-Dec-2024 20:48 | 1834903 | ||
| 46081_TS_DEWT_042016.nc | 07-Dec-2024 20:50 | 1831851 | ||
| 46081_TS_DEWT_042017.nc | 07-Dec-2024 21:02 | 1837945 | ||
| 46081_TS_DEWT_042018.nc | 07-Dec-2024 21:04 | 5024267 | ||
| 46081_TS_DEWT_042019.nc | 07-Dec-2024 21:05 | 3806642 | ||
| 46081_TS_DEWT_042021.nc | 07-Dec-2024 21:12 | 1647726 | ||
| 46081_TS_DEWT_042022.nc | 07-Dec-2024 21:18 | 1651093 | ||
| 46081_TS_DEWT_042023.nc | 07-Dec-2024 21:20 | 1654576 | ||
| 46081_TS_DEWT_042025.nc | 01-May-2025 04:21 | 1651122 | ||
| 46081_TS_DEWT_052004.nc | 07-Dec-2024 20:24 | 1660697 | ||
| 46081_TS_DEWT_052005.nc | 07-Dec-2024 20:26 | 1655399 | ||
| 46081_TS_DEWT_052006.nc | 07-Dec-2024 20:28 | 1654662 | ||
| 46081_TS_DEWT_052009.nc | 07-Dec-2024 20:31 | 1658544 | ||
| 46081_TS_DEWT_052010.nc | 07-Dec-2024 20:33 | 3366391 | ||
| 46081_TS_DEWT_052011.nc | 07-Dec-2024 20:35 | 4782588 | ||
| 46081_TS_DEWT_052013.nc | 07-Dec-2024 20:46 | 1709434 | ||
| 46081_TS_DEWT_052015.nc | 07-Dec-2024 20:48 | 1667071 | ||
| 46081_TS_DEWT_052016.nc | 07-Dec-2024 20:50 | 1822276 | ||
| 46081_TS_DEWT_052017.nc | 07-Dec-2024 21:02 | 1833274 | ||
| 46081_TS_DEWT_052019.nc | 07-Dec-2024 21:05 | 1831943 | ||
| 46081_TS_DEWT_052021.nc | 07-Dec-2024 21:14 | 1629111 | ||
| 46081_TS_DEWT_052022.nc | 07-Dec-2024 21:19 | 1313312 | ||
| 46081_TS_DEWT_052025.nc | 01-Jun-2025 04:10 | 1839258 | ||
| 46081_TS_DEWT_062004.nc | 07-Dec-2024 20:24 | 4493945 | ||
| 46081_TS_DEWT_062005.nc | 07-Dec-2024 20:26 | 3326726 | ||
| 46081_TS_DEWT_062006.nc | 07-Dec-2024 20:28 | 1675217 | ||
| 46081_TS_DEWT_062009.nc | 07-Dec-2024 20:31 | 1662543 | ||
| 46081_TS_DEWT_062010.nc | 07-Dec-2024 20:33 | 1622100 | ||
| 46081_TS_DEWT_062011.nc | 07-Dec-2024 20:36 | 1669655 | ||
| 46081_TS_DEWT_062013.nc | 07-Dec-2024 20:46 | 1678788 | ||
| 46081_TS_DEWT_062015.nc | 07-Dec-2024 20:49 | 1678449 | ||
| 46081_TS_DEWT_062016.nc | 07-Dec-2024 20:52 | 1243245 | ||
| 46081_TS_DEWT_062017.nc | 07-Dec-2024 21:02 | 1679226 | ||
| 46081_TS_DEWT_062019.nc | 07-Dec-2024 21:06 | 1680057 | ||
| 46081_TS_DEWT_062021.nc | 07-Dec-2024 21:15 | 1677688 | ||
| 46081_TS_DEWT_062022.nc | 07-Dec-2024 21:19 | 4901006 | ||
| 46081_TS_DEWT_062023.nc | 07-Dec-2024 21:21 | 1837245 | ||
| 46081_TS_DEWT_062025.nc | 01-Jul-2025 03:41 | 1670192 | ||
| 46081_TS_DEWT_072004.nc | 07-Dec-2024 20:24 | 1787256 | ||
| 46081_TS_DEWT_072005.nc | 07-Dec-2024 20:26 | 1833922 | ||
| 46081_TS_DEWT_072006.nc | 07-Dec-2024 20:28 | 1832155 | ||
| 46081_TS_DEWT_072009.nc | 07-Dec-2024 20:32 | 1834372 | ||
| 46081_TS_DEWT_072010.nc | 07-Dec-2024 20:33 | 1675666 | ||
| 46081_TS_DEWT_072011.nc | 07-Dec-2024 20:38 | 1828639 | ||
| 46081_TS_DEWT_072013.nc | 07-Dec-2024 20:46 | 1834010 | ||
| 46081_TS_DEWT_072015.nc | 07-Dec-2024 20:49 | 1840427 | ||
| 46081_TS_DEWT_072016.nc | 07-Dec-2024 20:53 | 5718766 | ||
| 46081_TS_DEWT_072017.nc | 07-Dec-2024 21:02 | 1675504 | ||
| 46081_TS_DEWT_072019.nc | 07-Dec-2024 21:06 | 1675862 | ||
| 46081_TS_DEWT_072020.nc | 07-Dec-2024 21:06 | 1633920 | ||
| 46081_TS_DEWT_072021.nc | 07-Dec-2024 21:17 | 1667608 | ||
| 46081_TS_DEWT_072022.nc | 07-Dec-2024 21:19 | 1675232 | ||
| 46081_TS_DEWT_072023.nc | 07-Dec-2024 21:21 | 1678734 | ||
| 46081_TS_DEWT_072025.nc | 01-Aug-2025 03:41 | 1670678 | ||
| 46081_TS_DEWT_082005.nc | 07-Dec-2024 20:26 | 1677166 | ||
| 46081_TS_DEWT_082006.nc | 07-Dec-2024 20:28 | 1644531 | ||
| 46081_TS_DEWT_082007.nc | 07-Dec-2024 20:29 | 1673357 | ||
| 46081_TS_DEWT_082008.nc | 07-Dec-2024 20:30 | 2724321 | ||
| 46081_TS_DEWT_082009.nc | 07-Dec-2024 20:32 | 1830867 | ||
| 46081_TS_DEWT_082010.nc | 07-Dec-2024 20:33 | 1828492 | ||
| 46081_TS_DEWT_082011.nc | 07-Dec-2024 20:39 | 1650342 | ||
| 46081_TS_DEWT_082013.nc | 07-Dec-2024 20:47 | 1826310 | ||
| 46081_TS_DEWT_082014.nc | 07-Dec-2024 20:47 | 1827449 | ||
| 46081_TS_DEWT_082015.nc | 07-Dec-2024 20:49 | 1829938 | ||
| 46081_TS_DEWT_082016.nc | 07-Dec-2024 20:55 | 1649690 | ||
| 46081_TS_DEWT_082017.nc | 07-Dec-2024 21:02 | 1834221 | ||
| 46081_TS_DEWT_082018.nc | 07-Dec-2024 21:04 | 1832435 | ||
| 46081_TS_DEWT_082019.nc | 07-Dec-2024 21:06 | 1829013 | ||
| 46081_TS_DEWT_082020.nc | 07-Dec-2024 21:07 | 1781452 | ||
| 46081_TS_DEWT_082021.nc | 07-Dec-2024 21:17 | 1832869 | ||
| 46081_TS_DEWT_082022.nc | 07-Dec-2024 21:19 | 1831960 | ||
| 46081_TS_DEWT_082023.nc | 07-Dec-2024 21:21 | 1820524 | ||
| 46081_TS_DEWT_082025.nc | 01-Sep-2025 03:47 | 1832855 | ||
| 46081_TS_DEWT_092003.nc | 07-Dec-2024 20:23 | 1672014 | ||
| 46081_TS_DEWT_092004.nc | 07-Dec-2024 20:25 | 1835148 | ||
| 46081_TS_DEWT_092005.nc | 07-Dec-2024 20:27 | 1830065 | ||
| 46081_TS_DEWT_092006.nc | 07-Dec-2024 20:28 | 1831356 | ||
| 46081_TS_DEWT_092007.nc | 07-Dec-2024 20:29 | 1838451 | ||
| 46081_TS_DEWT_092008.nc | 07-Dec-2024 20:30 | 1831946 | ||
| 46081_TS_DEWT_092009.nc | 07-Dec-2024 20:32 | 3691203 | ||
| 46081_TS_DEWT_092010.nc | 07-Dec-2024 20:34 | 1665440 | ||
| 46081_TS_DEWT_092011.nc | 07-Dec-2024 20:41 | 1672968 | ||
| 46081_TS_DEWT_092012.nc | 07-Dec-2024 20:45 | 1668241 | ||
| 46081_TS_DEWT_092013.nc | 07-Dec-2024 20:47 | 1674191 | ||
| 46081_TS_DEWT_092014.nc | 07-Dec-2024 20:47 | 1670988 | ||
| 46081_TS_DEWT_092015.nc | 07-Dec-2024 20:49 | 1675326 | ||
| 46081_TS_DEWT_092016.nc | 07-Dec-2024 20:57 | 1677226 | ||
| 46081_TS_DEWT_092017.nc | 07-Dec-2024 21:03 | 1672997 | ||
| 46081_TS_DEWT_092018.nc | 07-Dec-2024 21:04 | 1667685 | ||
| 46081_TS_DEWT_092019.nc | 07-Dec-2024 21:06 | 1673080 | ||
| 46081_TS_DEWT_092020.nc | 07-Dec-2024 21:07 | 4913855 | ||
| 46081_TS_DEWT_092021.nc | 07-Dec-2024 21:17 | 1828359 | ||
| 46081_TS_DEWT_092022.nc | 07-Dec-2024 21:19 | 1829329 | ||
| 46081_TS_DEWT_092023.nc | 07-Dec-2024 21:21 | 1670418 | ||
| 46081_TS_DEWT_092025.nc | 01-Oct-2025 03:11 | 1828091 | ||
| 46081_TS_DEWT_102003.nc | 07-Dec-2024 20:23 | 1680880 | ||
| 46081_TS_DEWT_102004.nc | 07-Dec-2024 20:25 | 1684049 | ||
| 46081_TS_DEWT_102005.nc | 07-Dec-2024 20:27 | 1831870 | ||
| 46081_TS_DEWT_102006.nc | 07-Dec-2024 20:28 | 1832160 | ||
| 46081_TS_DEWT_102007.nc | 07-Dec-2024 20:29 | 1749708 | ||
| 46081_TS_DEWT_102008.nc | 07-Dec-2024 20:30 | 1670660 | ||
| 46081_TS_DEWT_102009.nc | 07-Dec-2024 20:32 | 5614383 | ||
| 46081_TS_DEWT_102010.nc | 07-Dec-2024 20:34 | 1674249 | ||
| 46081_TS_DEWT_102011.nc | 07-Dec-2024 20:42 | 1669386 | ||
| 46081_TS_DEWT_102012.nc | 07-Dec-2024 20:45 | 1648602 | ||
| 46081_TS_DEWT_102013.nc | 07-Dec-2024 20:47 | 1675344 | ||
| 46081_TS_DEWT_102014.nc | 07-Dec-2024 20:47 | 1671357 | ||
| 46081_TS_DEWT_102015.nc | 07-Dec-2024 20:49 | 1676361 | ||
| 46081_TS_DEWT_102016.nc | 07-Dec-2024 20:58 | 1659653 | ||
| 46081_TS_DEWT_102017.nc | 07-Dec-2024 21:03 | 1677838 | ||
| 46081_TS_DEWT_102018.nc | 07-Dec-2024 21:04 | 1676265 | ||
| 46081_TS_DEWT_102019.nc | 07-Dec-2024 21:06 | 1675110 | ||
| 46081_TS_DEWT_102020.nc | 07-Dec-2024 21:07 | 5966348 | ||
| 46081_TS_DEWT_102021.nc | 07-Dec-2024 21:18 | 5497604 | ||
| 46081_TS_DEWT_102022.nc | 07-Dec-2024 21:19 | 1827669 | ||
| 46081_TS_DEWT_102023.nc | 07-Dec-2024 21:21 | 1830609 | ||
| 46081_TS_DEWT_102024.nc | 12-Jan-2025 20:07 | 1830254 | ||
| 46081_TS_DEWT_102025.nc | 01-Nov-2025 04:12 | 1832472 | ||
| 46081_TS_DEWT_112003.nc | 07-Dec-2024 20:23 | 1675930 | ||
| 46081_TS_DEWT_112004.nc | 07-Dec-2024 20:25 | 1678351 | ||
| 46081_TS_DEWT_112005.nc | 07-Dec-2024 20:27 | 1834996 | ||
| 46081_TS_DEWT_112006.nc | 07-Dec-2024 20:29 | 1835253 | ||
| 46081_TS_DEWT_112007.nc | 07-Dec-2024 20:30 | 1674800 | ||
| 46081_TS_DEWT_112008.nc | 07-Dec-2024 20:30 | 1649651 | ||
| 46081_TS_DEWT_112009.nc | 07-Dec-2024 20:32 | 5656473 | ||
| 46081_TS_DEWT_112010.nc | 07-Dec-2024 20:34 | 5467303 | ||
| 46081_TS_DEWT_112011.nc | 07-Dec-2024 20:44 | 1626574 | ||
| 46081_TS_DEWT_112012.nc | 07-Dec-2024 20:45 | 1476666 | ||
| 46081_TS_DEWT_112014.nc | 07-Dec-2024 20:47 | 1478148 | ||
| 46081_TS_DEWT_112015.nc | 07-Dec-2024 20:49 | 1627429 | ||
| 46081_TS_DEWT_112016.nc | 07-Dec-2024 21:00 | 428238 | ||
| 46081_TS_DEWT_112017.nc | 07-Dec-2024 21:03 | 1473963 | ||
| 46081_TS_DEWT_112018.nc | 07-Dec-2024 21:04 | 1469737 | ||
| 46081_TS_DEWT_112020.nc | 07-Dec-2024 21:07 | 1470776 | ||
| 46081_TS_DEWT_112021.nc | 07-Dec-2024 21:18 | 1465105 | ||
| 46081_TS_DEWT_112022.nc | 07-Dec-2024 21:20 | 419175 | ||
| 46081_TS_DEWT_112023.nc | 07-Dec-2024 21:22 | 1470744 | ||
| 46081_TS_DEWT_112024.nc | 17-Jan-2025 13:34 | 1151092 | ||
| 46081_TS_DEWT_112025.nc | 01-Dec-2025 05:13 | 1462068 | ||
| 46081_TS_DEWT_122003.nc | 07-Dec-2024 20:23 | 1464568 | ||
| 46081_TS_DEWT_122004.nc | 07-Dec-2024 20:25 | 1468898 | ||
| 46081_TS_DEWT_122005.nc | 07-Dec-2024 20:27 | 1461937 | ||
| 46081_TS_DEWT_122006.nc | 07-Dec-2024 20:29 | 1458824 | ||
| 46081_TS_DEWT_122007.nc | 07-Dec-2024 20:30 | 1472835 | ||
| 46081_TS_DEWT_122008.nc | 07-Dec-2024 20:31 | 1475049 | ||
| 46081_TS_DEWT_122009.nc | 07-Dec-2024 20:32 | 1464034 | ||
| 46081_TS_DEWT_122010.nc | 07-Dec-2024 20:34 | 1471291 | ||
| 46081_TS_DEWT_122011.nc | 07-Dec-2024 20:45 | 1476000 | ||
| 46081_TS_DEWT_122012.nc | 07-Dec-2024 20:45 | 1460389 | ||
| 46081_TS_DEWT_122014.nc | 07-Dec-2024 20:48 | 1463003 | ||
| 46081_TS_DEWT_122015.nc | 07-Dec-2024 20:49 | 1154138 | ||
| 46081_TS_DEWT_122016.nc | 07-Dec-2024 21:01 | 1472181 | ||
| 46081_TS_DEWT_122017.nc | 07-Dec-2024 21:03 | 1472804 | ||
| 46081_TS_DEWT_122018.nc | 07-Dec-2024 21:05 | 1464074 | ||
| 46081_TS_DEWT_122020.nc | 07-Dec-2024 21:07 | 1477152 | ||
| 46081_TS_DEWT_122021.nc | 07-Dec-2024 21:18 | 1473265 | ||
| 46081_TS_DEWT_122022.nc | 07-Dec-2024 21:20 | 1476929 | ||
| 46081_TS_DEWT_122023.nc | 07-Dec-2024 21:22 | 1468731 | ||
| 46081_TS_DEWT_122024.nc | 22-Jan-2025 15:47 | 1477277 | ||
| 46081_TS_DEWT_122025.nc | 01-Jan-2026 06:52 | 1472699 | ||